sat.trackr.live / text

‹ back to catalog

STARLINK-30402

NORAD 57827 · 2023-138V

PAYLOAD ACTIVE UNKNOWN

§ Identity

Operator
Country
US
Launch date
2023-09-09
Launch site
AFETR
Launch vehicle
Mass (kg)
RCS (m²)

Purposes: comms

External: N2YO · Heavens-Above · Gunter

§ Orbital elements

Epoch: 2026-09-20T05:50:35.749248Z

Period
94.27 min
Inclination
43.0035°
Eccentricity
0.0001289
Mean motion
15.27576271 rev/d
Perigee alt
482.2 km
Apogee alt
483.9 km
Semi-major
6,861.2 km
B*
-1.1752e-5
RAAN
215.3699°
Arg perigee
270.5009°
Mean anomaly
89.5695°
Rev number
16,848

§ Raw data

STARLINK-304021 57827U 23138V   26263.24346932 -.00000585  00000+0 -11752-4 0  99972 57827  43.0035 215.3699 0001289 270.5009  89.5695 15.27576271168486

JSON: /api/v1/satellites/57827 · /tle

For live sub-satellite position, see the globe view (requires WebGL).

§ Visibility from observer

Set your observer location to see the next 7 days of passes ≥ 10°. The values pass through the URL so the page stays shareable.

No JS? Fill the form by hand. The geolocation button needs JavaScript.